Angeles / Pampanga, Philippines

7:58 AM +08 on April 25, 2018 (GMT +0800)
Angeles / Pampanga

Weather History for RPLC - November, 2012

Change the Weather History Date:

Thursday, November 29, 2012

  Actual Average Record
Temperature  
Mean Temperature 78 °F -  
Max Temperature 87 °F - - ()
Min Temperature 68 °F - - ()
Cooling Degree Days 12    
Growing Degree Days 28 (Base 50)    
Moisture  
Dew Point 67 °F    
Average Humidity 71    
Maximum Humidity 94    
Minimum Humidity 49    
Precipitation  
Precipitation 0.00 in - - ()
Sea Level Pressure  
Sea Level Pressure 29.92 in    
Wind  
Wind Speed 5 mph ()    
Max Wind Speed 8 mph    
Max Gust Speed 26 mph    
Visibility 6.2 miles    
Events      
T = Trace of Precipitation, MM = Missing Value Source: Averaged Metar Reports

Daily Weather History Graph

Daily Weather History Graph

Search for Another Location

Airport or City:

Astronomy

Nov. 29, 2012 Rise Set
Actual Time 6:06 AM +08 5:25 PM +08
Civil Twilight 5:43 AM +08 5:48 PM +08
Nautical Twilight 5:17 AM +08 6:14 PM +08
Astronomical Twilight 4:51 AM +08 6:40 PM +08
Moon 6:00 PM +08 (11/29) 6:24 AM +08 (11/29)
Length of Visible Light 12h 04m
Length of Day
11h 18m
Full, 100% of the Moon is Illuminated
Nov 29
Full
Dec 6
Last Quarter
Dec 13
New
Dec 20
First Quarter
Dec 28
Full

Hourly Weather History & Observations

Time (+08) Temp. Heat Index Dew Point Humidity Pressure Visibility Wind Dir Wind Speed Gust Speed Precip Events Conditions
12:00 AM 71.6 °F - 66.2 °F 83% 29.95 in 6.2 mi WNW 4.6 mph - N/A   Mostly Cloudy
1:00 AM 69.8 °F - 64.4 °F 83% 29.95 in 6.2 mi West 6.9 mph - N/A   Mostly Cloudy
2:00 AM 69.8 °F - 64.4 °F 83% 29.92 in 6.2 mi WNW 4.6 mph 26.5 mph N/A   Mostly Cloudy
3:00 AM 68.0 °F - 64.4 °F 88% 29.89 in 6.2 mi West 6.9 mph - N/A   Scattered Clouds
4:00 AM 68.0 °F - 64.4 °F 88% 29.92 in 6.2 mi West 5.8 mph - N/A   Scattered Clouds
5:00 AM 68.0 °F - 64.4 °F 88% 29.92 in 6.2 mi West 5.8 mph 21.9 mph N/A   Scattered Clouds
6:00 AM 68.0 °F - 64.4 °F 88% 29.92 in 6.2 mi West 6.9 mph - N/A   Overcast
7:00 AM 69.8 °F - 68.0 °F 94% 29.95 in 6.2 mi West 6.9 mph - N/A   Overcast
8:00 AM 78.8 °F - 68.0 °F 69% 29.98 in - North - - N/A   Mostly Cloudy
9:00 AM 82.4 °F 85.4 °F 68.0 °F 62% 29.98 in - North - - N/A   Mostly Cloudy
10:00 AM 84.2 °F 88.4 °F 69.8 °F 62% 29.98 in 6.2 mi NE 6.9 mph - N/A   Scattered Clouds
11:00 AM 84.2 °F 87.3 °F 68.0 °F 58% 29.95 in 6.2 mi East 4.6 mph - N/A   Scattered Clouds
12:00 PM 87.8 °F 92.6 °F 69.8 °F 55% 29.95 in 6.2 mi Variable 3.5 mph - N/A   Mostly Cloudy
1:00 PM 87.8 °F 91.4 °F 68.0 °F 52% 29.92 in 6.2 mi ESE 5.8 mph - N/A   Mostly Cloudy
2:00 PM 87.8 °F 91.4 °F 68.0 °F 52% 29.89 in 6.2 mi ENE 4.6 mph - N/A   Mostly Cloudy
3:00 PM 87.8 °F 90.4 °F 66.2 °F 49% 29.86 in 6.2 mi NE 8.1 mph - N/A   Mostly Cloudy
4:00 PM 87.8 °F 90.4 °F 66.2 °F 49% 29.86 in 6.2 mi East 8.1 mph - N/A   Mostly Cloudy
5:00 PM 84.2 °F 87.3 °F 68.0 °F 58% 29.89 in 6.2 mi East 8.1 mph - N/A   Mostly Cloudy
6:00 PM 80.6 °F 82.7 °F 66.2 °F 61% 29.89 in 6.2 mi SE 4.6 mph - N/A   Mostly Cloudy
7:00 PM 77.0 °F - 66.2 °F 69% 29.92 in 6.2 mi Variable 4.6 mph - N/A   Mostly Cloudy
8:00 PM 75.2 °F - 66.2 °F 73% 29.95 in 6.2 mi SW 4.6 mph - N/A   Mostly Cloudy
9:00 PM 77.0 °F - 66.2 °F 69% 29.92 in 6.2 mi SW 6.9 mph - N/A   Scattered Clouds
10:00 PM 71.6 °F - 66.2 °F 83% 29.92 in 6.2 mi WSW 5.8 mph - N/A   Scattered Clouds
11:00 PM 73.4 °F - 66.2 °F 78% 29.92 in 6.2 mi WSW 5.8 mph - N/A   Scattered Clouds